Cairns, Queensland

6:01 PM AEST on February 12, 2016 (GMT +1000)
Cairns International

Weather History for YBCS - December, 2013

Change the Weather History Date:

Sunday, December 22, 2013

  Actual Average Record
Temperature  
Mean Temperature 80 °F -  
Max Temperature 87 °F 89 °F - (-1)
Min Temperature 72 °F 74 °F - (-1)
Cooling Degree Days 14    
Growing Degree Days 30 (Base 50)    
Moisture  
Dew Point 66 °F    
Average Humidity 64    
Maximum Humidity 89    
Minimum Humidity 31    
Precipitation  
Precipitation 0.08 in 0.45 in - ()
Sea Level Pressure  
Sea Level Pressure 29.87 in    
Wind  
Wind Speed 10 mph ()    
Max Wind Speed 21 mph    
Max Gust Speed -    
Visibility 6.6 miles    
Events Rain    
Averages and records for this station are not official NWS values.
T = Trace of Precipitation, MM = Missing Value Source: Averaged Metar Reports

Daily Weather History Graph

Daily Weather History Graph

Search for Another Location

Airport or City:

Trip Planner

Search our weather history database for the weather conditions in past years. The results will help you decide how hot, cold, wet, or windy it might be!

Date:

Astronomy

Dec. 22, 2013 Rise Set
Actual Time 5:41 AM AEST 6:49 PM AEST
Civil Twilight 5:17 AM AEST 7:13 PM AEST
Nautical Twilight 4:48 AM AEST 7:42 PM AEST
Astronomical Twilight 4:19 AM AEST 8:11 PM AEST
Moon 10:10 PM AEST (12/22) 9:24 AM AEST (12/22)
Length of Visible Light 13h 56m
Length of Day
13h 08m
Waning Gibbous, 81% of the Moon is Illuminated
Dec 22
Waning Gibbous
Dec 25
Last Quarter
Jan 1
New
Jan 8
First Quarter
Jan 16
Full

Hourly Weather History & Observations

Time (AEST) Temp. Heat Index Dew Point Humidity Pressure Visibility Wind Dir Wind Speed Gust Speed Precip Events Conditions
12:00 AM 76 °F - 67 °F 65% 29.90 in - South 9.2 mph - -  
12:00 AM 77.0 °F - 66.2 °F 69% 29.89 in 6.2 mi South 9.2 mph - N/A   Scattered Clouds
12:30 AM 77.0 °F - 66.2 °F 69% 29.86 in 6.2 mi South 9.2 mph - N/A   Scattered Clouds
1:00 AM 75 °F - 68 °F 72% 29.88 in - SSE 6.9 mph - -  
1:00 AM 75.2 °F - 68.0 °F 78% 29.86 in 6.2 mi SSE 6.9 mph - N/A   Partly Cloudy
1:30 AM 75.2 °F - 68.0 °F 78% 29.86 in 6.2 mi SSE 8.1 mph - N/A   Partly Cloudy
2:00 AM 75.2 °F - 68.0 °F 78% 29.86 in 6.2 mi South 8.1 mph - N/A   Partly Cloudy
2:30 AM 77.0 °F - 68.0 °F 74% 29.83 in 6.2 mi South 9.2 mph - N/A   Partly Cloudy
3:00 AM 76 °F - 67 °F 67% 29.85 in - South 10.4 mph - -  
3:00 AM 77.0 °F - 68.0 °F 74% 29.83 in 6.2 mi South 10.4 mph - N/A   Partly Cloudy
3:30 AM 75.2 °F - 68.0 °F 78% 29.83 in 6.2 mi South 10.4 mph - N/A   Partly Cloudy
4:00 AM 74 °F - 68 °F 78% 29.85 in - SSE 8.1 mph - -  
4:00 AM 73.4 °F - 68.0 °F 83% 29.83 in 6.2 mi SSE 8.1 mph - N/A   Partly Cloudy
4:30 AM 73.4 °F - 68.0 °F 83% 29.83 in 6.2 mi SE 9.2 mph - N/A   Partly Cloudy
5:00 AM 73.4 °F - 68.0 °F 83% 29.83 in 6.2 mi SE 10.4 mph - N/A   Partly Cloudy
5:30 AM 73.4 °F - 68.0 °F 83% 29.86 in 6.2 mi SSE 8.1 mph - N/A   Scattered Clouds
6:00 AM 73 °F - 68 °F 80% 29.87 in - SE 10.4 mph - -   Overcast
6:00 AM 73.4 °F - 68.0 °F 83% 29.86 in 6.2 mi SE 10.4 mph - N/A   Scattered Clouds
6:30 AM 77.0 °F - 66.2 °F 69% 29.86 in 6.2 mi South 9.2 mph - N/A   Scattered Clouds
7:00 AM 77 °F - 67 °F 64% 29.91 in - SSE 8.1 mph - -  
7:00 AM 77.0 °F - 66.2 °F 69% 29.89 in 6.2 mi SSE 8.1 mph - N/A   Scattered Clouds
7:30 AM 78.8 °F - 68.0 °F 69% 29.89 in 6.2 mi South 10.4 mph - N/A   Scattered Clouds
8:00 AM 78.8 °F - 68.0 °F 69% 29.92 in 6.2 mi South 10.4 mph - N/A   Scattered Clouds
8:30 AM 80.6 °F 83.2 °F 68.0 °F 65% 29.92 in 6.2 mi South 10.4 mph - N/A   Scattered Clouds
9:00 AM 82 °F - 67 °F 52% 29.91 in 19 mi South 11.5 mph - -   Partly Cloudy
9:00 AM 82.4 °F 85.4 °F 68.0 °F 62% 29.92 in 6.2 mi South 11.5 mph - N/A   Scattered Clouds
9:30 AM 84.2 °F 87.3 °F 68.0 °F 58% 29.92 in 6.2 mi SSE 11.5 mph - N/A   Scattered Clouds
10:00 AM 83 °F - 64 °F 43% 29.92 in - SE 16.1 mph - -  
10:00 AM 82.4 °F 83.9 °F 64.4 °F 54% 29.92 in 6.2 mi SE 16.1 mph - N/A   Scattered Clouds
10:30 AM 82.4 °F 83.4 °F 62.6 °F 51% 29.89 in 6.2 mi SE 18.4 mph - N/A   Scattered Clouds
11:00 AM 86.0 °F 86.1 °F 60.8 °F 43% 29.89 in 6.2 mi ESE 18.4 mph - N/A   Scattered Clouds
11:30 AM 86.0 °F 86.1 °F 60.8 °F 43% 29.89 in 6.2 mi SE 20.7 mph - N/A   Scattered Clouds
12:00 PM 87 °F - 61 °F 31% 29.89 in - SE 16.1 mph - -  
12:00 PM 86.0 °F 86.1 °F 60.8 °F 43% 29.89 in 6.2 mi SE 16.1 mph - N/A   Scattered Clouds
12:30 PM 87.8 °F 87.1 °F 59.0 °F 38% 29.86 in 6.2 mi SE 18.4 mph - N/A   Scattered Clouds
1:00 PM 87 °F - 61 °F 32% 29.87 in - SE 19.6 mph - -  
1:00 PM 87.8 °F 87.6 °F 60.8 °F 40% 29.86 in 6.2 mi SE 19.6 mph - N/A   Scattered Clouds
1:30 PM 84.2 °F 85.6 °F 64.4 °F 51% 29.86 in 6.2 mi ESE 16.1 mph - N/A   Scattered Clouds
2:00 PM 86.0 °F 86.6 °F 62.6 °F 45% 29.83 in 6.2 mi ESE 17.3 mph - N/A   Partly Cloudy
2:30 PM 87.8 °F 89.4 °F 64.4 °F 46% 29.83 in 6.2 mi SE 16.1 mph - N/A   Partly Cloudy
3:00 PM 86 °F - 64 °F 39% 29.83 in 19 mi SE 17.3 mph - -   Partly Cloudy
3:00 PM 86.0 °F 87.3 °F 64.4 °F 48% 29.83 in 6.2 mi SE 17.3 mph - N/A   Partly Cloudy
3:30 PM 86.0 °F 88.2 °F 66.2 °F 51% 29.83 in 6.2 mi SE 17.3 mph - N/A   Partly Cloudy
4:00 PM 85 °F - 65 °F 41% 29.83 in - SE 17.3 mph - -  
4:00 PM 86.0 °F 87.3 °F 64.4 °F 48% 29.83 in 6.2 mi SE 17.3 mph - N/A   Partly Cloudy
4:30 PM 84.2 °F 85.6 °F 64.4 °F 51% 29.83 in 6.2 mi ESE 15.0 mph - N/A   Partly Cloudy
5:00 PM 82.4 °F 83.9 °F 64.4 °F 54% 29.83 in 6.2 mi SE 16.1 mph - N/A   Partly Cloudy
5:30 PM 82.4 °F 83.9 °F 64.4 °F 54% 29.83 in 6.2 mi SE 15.0 mph - N/A   Scattered Clouds
6:00 PM 81 °F - 67 °F 53% 29.85 in - SE 13.8 mph - -   Overcast
6:00 PM 80.6 °F 82.7 °F 66.2 °F 61% 29.83 in 6.2 mi SE 13.8 mph - N/A   Scattered Clouds
6:30 PM 80.6 °F 83.2 °F 68.0 °F 65% 29.86 in 6.2 mi SE 10.4 mph - N/A   Scattered Clouds
7:00 PM 80 °F - 68 °F 59% 29.88 in - SSE 10.4 mph - -  
7:00 PM 80.6 °F 83.2 °F 68.0 °F 65% 29.86 in 6.2 mi SSE 10.4 mph - N/A   Scattered Clouds
7:30 PM 78.8 °F - 68.0 °F 69% 29.86 in 6.2 mi SSE 9.2 mph - N/A   Mostly Cloudy
8:00 PM 78.8 °F - 68.0 °F 69% 29.89 in 6.2 mi SSE 5.8 mph - N/A   Mostly Cloudy
8:30 PM 77.0 °F - 69.8 °F 78% 29.89 in 6.2 mi SSE 11.5 mph - N/A   Mostly Cloudy
9:00 PM 78 °F - 68 °F 63% 29.90 in - South 6.9 mph - -   Overcast
9:00 PM 78.8 °F - 68.0 °F 69% 29.89 in 5.6 mi South 6.9 mph - N/A   Mostly Cloudy
9:30 PM 77.0 °F - 69.8 °F 78% 29.89 in 6.2 mi SSE 8.1 mph - N/A   Scattered Clouds
10:00 PM 76 °F - 71 °F 79% 29.91 in - SSE 8.1 mph - -  
10:00 PM 75.2 °F - 71.6 °F 89% 29.89 in 5.0 mi SSE 8.1 mph - N/A Rain Light Rain Showers
10:30 PM 75.2 °F - 69.8 °F 83% 29.89 in 6.2 mi South 8.1 mph - N/A   Mostly Cloudy
11:00 PM 77.0 °F - 69.8 °F 78% 29.89 in 6.2 mi South 6.9 mph - N/A   Mostly Cloudy
11:30 PM 75.2 °F - 71.6 °F 89% 29.89 in 6.2 mi North 4.6 mph - N/A   Mostly Cloudy
11:43 PM 75.2 °F - 69.8 °F 83% 29.89 in 3.7 mi NE 10.4 mph - N/A Rain Heavy Rain